Location: Rowland
(34.5359°N, 79.2929°W)
Time: 20:08:15
(UTC+00:00)

Transit 2A Rocket - Pass Details

Date: 04 October 2022
Orbit: 589 x 911 km, 66.7° (Epoch: 03 December)

Event Time Altitude Azimuth Distance (km) Brightness Sun altitude
Rises 18:24:10 0° 352° (N) 3,028 7.8 46.8°
Reaches altitude 10° 18:27:18 10° 14° (NNE) 2,175 7.1 46.5°
Maximum altitude 18:30:21 16° 53° (NE) 1,850 6.8 46.1°
Drops below altitude 10° 18:33:33 10° 91° (E) 2,302 7.4 45.8°
Sets 18:36:59 0° 112° (ESE) 3,299 8.2 45.4°
